NORTHEAST SUFFOLK  -  Frost Advisory Frost Advisory        NORTHWEST SUFFOLK  -  Frost Advisory Frost Advisory        SOUTHEAST SUFFOLK  -  Frost Advisory Frost Advisory        SOUTHWEST SUFFOLK  -  Frost Advisory Frost Advisory      

Active alerts

Northwest Suffolk
  Details for Northwest Suffolk Frost Advisory
Southwest Suffolk
  Details for Southwest Suffolk Frost Advisory
Northeast Suffolk
  Details for Northeast Suffolk Frost Advisory
Southeast Suffolk
  Details for Southeast Suffolk Frost Advisory


WXM80 ListenWXM80 Stop

You find our weather info also at:

UK Metoffice

WeatherCloud

Weather Underground

Northeastern Weather Network

AWEKAS

Citizen Weather Observer Program (CWOP)

HAMweather, WeatherForYou, PWS Weather


Weather Underground History page Text

Daily Summary for December 22, 2016 Units:  English    Metric   Both
« Previous Day
Next Day »
Daily Weekly Monthly Yearly Custom
  High: Low: Average:
Temperature: 49.0 °F 31.8 °F 40.1 °F
Dew Point: 35.8 °F 25.6 °F 30.1 °F
Humidity: 82 % 51 % 68 %
Wind Speed: 10.3 mph 0.0 mph 3.1 mph
Wind Gust: 29.0 mph - -
Wind:- - West
Pressure: 30.15 in 29.86 in -
Precipitation: 0.00 in    
Historical Graphs
 
 
Tabular Data for December 22, 2016
Time Temperature Dew Point Pressure Wind Wind Speed Wind Gust Humidity Rainfall Rate (Hourly)
00:04 35.4 °F 26.6 °F 30.13 in Calm   29.0 mph 70 % 0.00 in
00:09 35.4 °F 26.6 °F 30.13 in Calm   29.0 mph 70 % 0.00 in
00:14 35.4 °F 26.6 °F 30.13 in SW 1.1 mph 29.0 mph 70 % 0.00 in
00:19 35.4 °F 26.2 °F 30.13 in Calm   29.0 mph 69 % 0.00 in
00:24 35.3 °F 26.1 °F 30.13 in Calm   29.0 mph 69 % 0.00 in
00:29 35.3 °F 26.5 °F 30.13 in Calm     70 % 0.00 in
00:34 35.3 °F 26.5 °F 30.12 in Calm   29.0 mph 70 % 0.00 in
00:39 35.3 °F 26.5 °F 30.12 in Calm   29.0 mph 70 % 0.00 in
00:44 35.2 °F 26.4 °F 30.12 in Calm     70 % 0.00 in
00:49 35.2 °F 26.4 °F 30.12 in Calm     70 % 0.00 in
00:54 35.1 °F 26.3 °F 30.12 in Calm     70 % 0.00 in
00:59 35.0 °F 26.2 °F 30.12 in Calm   29.0 mph 70 % 0.00 in
01:04 34.9 °F 26.4 °F 30.12 in Calm   29.0 mph 71 % 0.00 in
01:09 34.8 °F 26.4 °F 30.12 in Calm   29.0 mph 71 % 0.00 in
01:15 34.7 °F 26.3 °F 30.11 in Calm   29.0 mph 71 % 0.00 in
01:20 34.6 °F 26.2 °F 30.12 in Calm   29.0 mph 71 % 0.00 in
01:25 34.5 °F 26.1 °F 30.12 in Calm   29.0 mph 71 % 0.00 in
01:30 34.4 °F 26.0 °F 30.11 in Calm   29.0 mph 71 % 0.00 in
01:35 34.4 °F 26.0 °F 30.11 in Calm   29.0 mph 71 % 0.00 in
01:40 34.3 °F 25.9 °F 30.11 in Calm   29.0 mph 71 % 0.00 in
01:45 34.3 °F 25.9 °F 30.11 in SW 0.3 mph 29.0 mph 71 % 0.00 in
01:50 34.3 °F 25.9 °F 30.11 in Calm   29.0 mph 71 % 0.00 in
01:55 34.2 °F 25.8 °F 30.11 in SW 0.6 mph 29.0 mph 71 % 0.00 in
02:00 34.2 °F 25.8 °F 30.11 in Calm   29.0 mph 71 % 0.00 in
02:05 34.2 °F 26.1 °F 30.11 in SW 0.1 mph 29.0 mph 72 % 0.00 in
02:10 34.1 °F 26.0 °F 30.10 in SW 0.3 mph 29.0 mph 72 % 0.00 in
02:15 34.1 °F 26.0 °F 30.10 in Calm   29.0 mph 72 % 0.00 in
02:20 34.1 °F 26.0 °F 30.10 in Calm   29.0 mph 72 % 0.00 in
02:25 34.0 °F 25.9 °F 30.10 in Calm   29.0 mph 72 % 0.00 in
02:31 33.9 °F 25.8 °F 30.10 in Calm   29.0 mph 72 % 0.00 in
02:36 33.8 °F 25.7 °F 30.10 in Calm   29.0 mph 72 % 0.00 in
02:41 33.7 °F 26.0 °F 30.10 in Calm   29.0 mph 73 % 0.00 in
02:46 33.5 °F 25.8 °F 30.10 in Calm   29.0 mph 73 % 0.00 in
02:51 33.4 °F 25.7 °F 30.10 in Calm   29.0 mph 73 % 0.00 in
02:56 33.3 °F 25.6 °F 30.09 in Calm   29.0 mph 73 % 0.00 in
03:01 33.1 °F 25.7 °F 30.09 in Calm   29.0 mph 74 % 0.00 in
03:06 33.0 °F 25.9 °F 30.09 in Calm   29.0 mph 75 % 0.00 in
03:11 32.9 °F 25.8 °F 30.09 in Calm   29.0 mph 75 % 0.00 in
03:16 32.9 °F 26.2 °F 30.09 in Calm   29.0 mph 76 % 0.00 in
03:21 32.8 °F 26.1 °F 30.09 in Calm   29.0 mph 76 % 0.00 in
03:26 32.8 °F 26.1 °F 30.09 in Calm   29.0 mph 76 % 0.00 in
03:31 32.7 °F 26.3 °F 30.09 in Calm   29.0 mph 77 % 0.00 in
03:36 32.6 °F 26.2 °F 30.09 in Calm   29.0 mph 77 % 0.00 in
03:41 32.6 °F 26.2 °F 30.08 in Calm   29.0 mph 77 % 0.00 in
03:47 32.5 °F 26.1 °F 30.07 in Calm   29.0 mph 77 % 0.00 in
03:52 32.5 °F 26.1 °F 30.07 in Calm   29.0 mph 77 % 0.00 in
03:57 32.4 °F 26.3 °F 30.07 in Calm   29.0 mph 78 % 0.00 in
04:02 32.4 °F 26.6 °F 30.07 in Calm   29.0 mph 79 % 0.00 in
04:07 32.3 °F 26.5 °F 30.06 in Calm   29.0 mph 79 % 0.00 in
04:12 32.2 °F 26.4 °F 30.06 in Calm   29.0 mph 79 % 0.00 in
04:17 32.1 °F 26.3 °F 30.07 in Calm   29.0 mph 79 % 0.00 in
04:22 32.0 °F 26.2 °F 30.07 in Calm   29.0 mph 79 % 0.00 in
04:27 31.9 °F 26.4 °F 30.06 in Calm   29.0 mph 80 % 0.00 in
04:32 31.9 °F 26.4 °F 30.06 in Calm   29.0 mph 80 % 0.00 in
04:37 31.8 °F 26.3 °F 30.06 in Calm   29.0 mph 80 % 0.00 in
04:39 31.8 °F 26.3 °F 30.05 in Calm   29.0 mph 80 % 0.00 in
04:44 31.8 °F 26.6 °F 30.05 in Calm   29.0 mph 81 % 0.00 in
04:49 31.8 °F 26.6 °F 30.05 in Calm   29.0 mph 81 % 0.00 in
04:54 31.9 °F 27.0 °F 30.05 in Calm   29.0 mph 82 % 0.00 in
04:59 31.9 °F 27.0 °F 30.05 in Calm   29.0 mph 82 % 0.00 in
05:04 31.9 °F 27.0 °F 30.06 in SW 1.6 mph 29.0 mph 82 % 0.00 in
05:09 32.0 °F 27.1 °F 30.06 in SSW 1.6 mph 29.0 mph 82 % 0.00 in
05:14 32.1 °F 26.9 °F 30.06 in SW 2.2 mph 29.0 mph 81 % 0.00 in
05:19 32.3 °F 26.8 °F 30.06 in SW 2.6 mph 29.0 mph 80 % 0.00 in
05:24 32.7 °F 26.6 °F 30.06 in SSW 1.1 mph 29.0 mph 78 % 0.00 in
05:29 33.0 °F 26.9 °F 30.05 in SSW 1.9 mph 29.0 mph 78 % 0.00 in
05:34 33.3 °F 26.9 °F 30.05 in SSW 1.9 mph 29.0 mph 77 % 0.00 in
05:39 33.6 °F 26.8 °F 30.05 in SW 0.2 mph 29.0 mph 76 % 0.00 in
05:44 33.9 °F 26.8 °F 30.06 in SW 0.1 mph 29.0 mph 75 % 0.00 in
05:49 34.2 °F 26.4 °F 30.05 in Calm   2.0 mph 73 % 0.00 in
05:54 34.4 °F 26.6 °F 30.05 in Calm   1.0 mph 73 % 0.00 in
05:59 34.8 °F 26.7 °F 30.04 in Calm   29.0 mph 72 % 0.00 in
06:04 35.0 °F 26.9 °F 30.04 in Calm   1.0 mph 72 % 0.00 in
06:09 35.0 °F 26.9 °F 30.03 in Calm     72 % 0.00 in
06:14 35.3 °F 27.2 °F 30.03 in Calm   2.0 mph 72 % 0.00 in
06:19 35.3 °F 27.2 °F 30.04 in Calm   29.0 mph 72 % 0.00 in
06:24 35.4 °F 27.3 °F 30.04 in Calm     72 % 0.00 in
06:29 35.5 °F 27.4 °F 30.03 in Calm   29.0 mph 72 % 0.00 in
06:34 35.5 °F 27.4 °F 30.04 in Calm   1.0 mph 72 % 0.00 in
06:39 35.5 °F 27.7 °F 30.04 in Calm   2.0 mph 73 % 0.00 in
06:44 35.5 °F 27.7 °F 30.04 in Calm   1.0 mph 73 % 0.00 in
06:49 35.5 °F 27.7 °F 30.03 in Calm   29.0 mph 73 % 0.00 in
06:54 35.6 °F 27.8 °F 30.03 in Calm     73 % 0.00 in
06:59 35.6 °F 28.1 °F 30.03 in Calm   29.0 mph 74 % 0.00 in
07:04 35.7 °F 28.6 °F 30.02 in SW 0.3 mph 29.0 mph 75 % 0.00 in
07:09 35.7 °F 28.2 °F 30.02 in Calm   29.0 mph 74 % 0.00 in
07:15 35.7 °F 28.2 °F 30.01 in South 0.6 mph 29.0 mph 74 % 0.00 in
07:20 35.7 °F 28.6 °F 30.01 in South 0.5 mph 29.0 mph 75 % 0.00 in
07:21 35.7 °F 28.6 °F 30.01 in South 0.7 mph 29.0 mph 75 % 0.00 in
07:26 35.8 °F 28.6 °F 30.00 in South 1.0 mph 29.0 mph 75 % 0.00 in
07:31 35.9 °F 28.7 °F 30.00 in South 0.5 mph 29.0 mph 75 % 0.00 in
07:37 36.0 °F 29.2 °F 30.01 in South 0.6 mph 29.0 mph 76 % 0.00 in
07:42 36.1 °F 29.3 °F 30.01 in Calm   29.0 mph 76 % 0.00 in
07:47 36.3 °F 29.5 °F 30.01 in Calm   29.0 mph 76 % 0.00 in
07:52 36.5 °F 29.7 °F 30.01 in Calm   29.0 mph 76 % 0.00 in
07:57 36.7 °F 29.8 °F 30.01 in Calm   29.0 mph 76 % 0.00 in
08:02 36.8 °F 29.9 °F 30.01 in South 0.1 mph 29.0 mph 76 % 0.00 in
08:07 37.0 °F 30.1 °F 30.00 in Calm   29.0 mph 76 % 0.00 in
08:12 37.1 °F 30.2 °F 30.00 in Calm   29.0 mph 76 % 0.00 in
08:17 37.2 °F 30.3 °F 30.00 in Calm   29.0 mph 76 % 0.00 in
08:22 37.3 °F 30.4 °F 29.99 in South 0.5 mph 29.0 mph 76 % 0.00 in
08:27 37.5 °F 30.6 °F 29.99 in South 0.6 mph 29.0 mph 76 % 0.00 in
08:32 37.6 °F 30.7 °F 29.99 in South 0.1 mph 29.0 mph 76 % 0.00 in
08:37 37.7 °F 30.8 °F 29.98 in Calm   29.0 mph 76 % 0.00 in
08:42 37.9 °F 31.0 °F 29.98 in SSE 2.1 mph 29.0 mph 76 % 0.00 in
08:48 38.0 °F 31.1 °F 29.98 in SSE 1.4 mph 29.0 mph 76 % 0.00 in
08:53 38.3 °F 31.7 °F 29.97 in SSE 0.5 mph 29.0 mph 77 % 0.00 in
08:58 38.5 °F 31.9 °F 29.97 in Calm   29.0 mph 77 % 0.00 in
09:03 38.8 °F 32.2 °F 29.97 in SSE 1.2 mph 29.0 mph 77 % 0.00 in
09:08 39.1 °F 32.8 °F 29.96 in SSE 1.2 mph 29.0 mph 78 % 0.00 in
09:13 39.3 °F 33.0 °F 29.96 in SSE 0.4 mph 29.0 mph 78 % 0.00 in
09:18 39.6 °F 33.6 °F 29.95 in SSE 1.9 mph 29.0 mph 79 % 0.00 in
09:23 40.0 °F 34.0 °F 29.95 in South 0.2 mph 29.0 mph 79 % 0.00 in
09:28 40.5 °F 34.5 °F 29.95 in SSE 1.8 mph 29.0 mph 79 % 0.00 in
09:33 40.7 °F 34.7 °F 29.94 in SSE 3.7 mph 29.0 mph 79 % 0.00 in
09:38 41.1 °F 34.8 °F 29.93 in SSE 2.5 mph 29.0 mph 78 % 0.00 in
09:43 41.5 °F 35.2 °F 29.93 in SE 2.2 mph 29.0 mph 78 % 0.00 in
09:48 41.9 °F 35.2 °F 29.93 in South 2.8 mph 29.0 mph 77 % 0.00 in
09:53 42.2 °F 35.5 °F 29.93 in SW 1.7 mph 29.0 mph 77 % 0.00 in
09:58 42.6 °F 35.6 °F 29.93 in South 2.6 mph 29.0 mph 76 % 0.00 in
10:04 43.1 °F 35.7 °F 29.92 in South 2.2 mph 29.0 mph 75 % 0.00 in
10:09 43.5 °F 35.8 °F 29.93 in SW 3.3 mph 29.0 mph 74 % 0.00 in
10:14 44.0 °F 35.6 °F 29.93 in SSW 3.6 mph 29.0 mph 72 % 0.00 in
10:19 44.5 °F 35.7 °F 29.93 in SW 4.1 mph 29.0 mph 71 % 0.00 in
10:24 45.0 °F 35.4 °F 29.93 in WSW 3.2 mph 29.0 mph 69 % 0.00 in
10:29 45.4 °F 35.5 °F 29.93 in South 5.7 mph 29.0 mph 68 % 0.00 in
10:34 46.0 °F 35.3 °F 29.92 in SW 4.1 mph 29.0 mph 66 % 0.00 in
10:39 46.6 °F 35.5 °F 29.93 in SSW 5.8 mph 29.0 mph 65 % 0.00 in
10:44 47.1 °F 35.5 °F 29.93 in SW 5.5 mph 29.0 mph 64 % 0.00 in
10:49 47.6 °F 35.6 °F 29.93 in SW 6.3 mph 29.0 mph 63 % 0.00 in
10:54 47.9 °F 35.5 °F 29.93 in WSW 4.1 mph 29.0 mph 62 % 0.00 in
10:59 48.3 °F 35.0 °F 29.92 in WSW 4.7 mph 29.0 mph 60 % 0.00 in
11:04 48.5 °F 35.2 °F 29.92 in WSW 4.0 mph 29.0 mph 60 % 0.00 in
11:09 48.6 °F 34.5 °F 29.91 in SW 5.8 mph 29.0 mph 58 % 0.00 in
11:14 48.8 °F 33.8 °F 29.91 in South 6.9 mph 29.0 mph 56 % 0.00 in
11:19 48.9 °F 33.9 °F 29.90 in SW 7.0 mph 15.0 mph 56 % 0.00 in
11:24 49.0 °F 34.0 °F 29.90 in SW 6.0 mph 13.0 mph 56 % 0.00 in
11:29 49.0 °F 33.5 °F 29.90 in SW 5.0 mph 12.0 mph 55 % 0.00 in
11:34 48.9 °F 33.4 °F 29.89 in WSW 6.0 mph 12.0 mph 55 % 0.00 in
11:39 48.8 °F 33.3 °F 29.89 in WSW 5.0 mph 10.0 mph 55 % 0.00 in
11:44 48.6 °F 32.7 °F 29.89 in WSW 6.0 mph 13.0 mph 54 % 0.00 in
11:49 48.4 °F 33.0 °F 29.88 in WSW 7.0 mph 9.0 mph 55 % 0.00 in
11:54 48.1 °F 33.1 °F 29.88 in WSW 6.0 mph 13.0 mph 56 % 0.00 in
11:59 48.0 °F 33.0 °F 29.89 in WSW 2.7 mph 29.0 mph 56 % 0.00 in
12:04 47.9 °F 32.9 °F 29.89 in West 2.0 mph 10.0 mph 56 % 0.00 in
12:09 47.9 °F 32.5 °F 29.88 in WSW 5.0 mph 10.0 mph 55 % 0.00 in
12:14 47.7 °F 31.8 °F 29.88 in West 8.0 mph 12.0 mph 54 % 0.00 in
12:19 47.5 °F 31.7 °F 29.88 in WSW 5.0 mph 12.0 mph 54 % 0.00 in
12:24 47.4 °F 31.6 °F 29.87 in WSW 6.0 mph 12.0 mph 54 % 0.00 in
12:29 47.3 °F 31.5 °F 29.87 in WSW 6.0 mph 9.0 mph 54 % 0.00 in
12:34 47.3 °F 31.5 °F 29.87 in WSW 5.0 mph 12.0 mph 54 % 0.00 in
12:39 47.2 °F 31.4 °F 29.87 in WSW 4.1 mph 29.0 mph 54 % 0.00 in
12:44 47.2 °F 31.4 °F 29.87 in West 6.0 mph 9.0 mph 54 % 0.00 in
12:49 47.2 °F 31.8 °F 29.87 in West 3.0 mph 8.0 mph 55 % 0.00 in
12:54 47.3 °F 31.9 °F 29.87 in West 2.0 mph 7.0 mph 55 % 0.00 in
12:59 47.3 °F 31.9 °F 29.87 in NW 3.8 mph 29.0 mph 55 % 0.00 in
13:05 47.4 °F 32.0 °F 29.86 in West 2.9 mph 29.0 mph 55 % 0.00 in
13:10 47.6 °F 32.2 °F 29.87 in WSW 2.6 mph 29.0 mph 55 % 0.00 in
13:15 47.5 °F 31.2 °F 29.87 in WSW 5.3 mph 29.0 mph 53 % 0.00 in
13:20 47.5 °F 31.7 °F 29.87 in West 2.4 mph 29.0 mph 54 % 0.00 in
13:25 47.5 °F 31.2 °F 29.87 in SSW 2.2 mph 29.0 mph 53 % 0.00 in
13:30 47.5 °F 31.2 °F 29.87 in West 3.1 mph 29.0 mph 53 % 0.00 in
13:35 47.5 °F 30.7 °F 29.87 in West 5.3 mph 29.0 mph 52 % 0.00 in
13:40 47.2 °F 30.5 °F 29.86 in WNW 2.1 mph 29.0 mph 52 % 0.00 in
13:45 47.0 °F 30.3 °F 29.86 in WNW 3.2 mph 29.0 mph 52 % 0.00 in
13:50 46.8 °F 30.1 °F 29.87 in WNW 5.0 mph 29.0 mph 52 % 0.00 in
13:55 46.6 °F 29.9 °F 29.87 in West 4.9 mph 29.0 mph 52 % 0.00 in
14:00 46.6 °F 29.4 °F 29.87 in WSW 5.0 mph 29.0 mph 51 % 0.00 in
14:05 46.5 °F 29.8 °F 29.86 in West 3.1 mph 29.0 mph 52 % 0.00 in
14:10 46.3 °F 29.6 °F 29.86 in West 5.6 mph 29.0 mph 52 % 0.00 in
14:15 46.1 °F 29.4 °F 29.87 in WSW 3.2 mph 29.0 mph 52 % 0.00 in
14:20 46.0 °F 29.8 °F 29.87 in WSW 5.9 mph 29.0 mph 53 % 0.00 in
14:25 45.8 °F 29.6 °F 29.87 in WNW 4.1 mph 29.0 mph 53 % 0.00 in
14:31 45.7 °F 29.5 °F 29.87 in NW 2.8 mph 29.0 mph 53 % 0.00 in
14:36 45.5 °F 29.3 °F 29.88 in WNW 0.8 mph 29.0 mph 53 % 0.00 in
14:41 45.4 °F 29.3 °F 29.89 in West 4.3 mph 29.0 mph 53 % 0.00 in
14:46 45.3 °F 29.2 °F 29.89 in West 4.7 mph 29.0 mph 53 % 0.00 in
14:51 45.2 °F 29.1 °F 29.89 in WNW 2.4 mph 29.0 mph 53 % 0.00 in
14:56 45.2 °F 29.5 °F 29.89 in NW 4.6 mph 29.0 mph 54 % 0.00 in
15:01 45.2 °F 29.5 °F 29.90 in WNW 3.6 mph 29.0 mph 54 % 0.00 in
15:06 45.1 °F 29.9 °F 29.90 in WNW 6.1 mph 29.0 mph 55 % 0.00 in
15:11 45.1 °F 30.8 °F 29.91 in West 2.6 mph 29.0 mph 57 % 0.00 in
15:16 45.2 °F 30.9 °F 29.91 in WNW 2.7 mph 29.0 mph 57 % 0.00 in
15:22 45.1 °F 31.2 °F 29.91 in WNW 1.8 mph 29.0 mph 58 % 0.00 in
15:27 45.1 °F 32.0 °F 29.91 in NW 2.5 mph 29.0 mph 60 % 0.00 in
15:32 45.1 °F 32.0 °F 29.91 in NW 2.3 mph 29.0 mph 60 % 0.00 in
15:37 45.1 °F 32.4 °F 29.92 in West 5.5 mph 29.0 mph 61 % 0.00 in
15:47 45.0 °F 31.9 °F 29.92 in West 8.2 mph 29.0 mph 60 % 0.00 in
15:52 45.0 °F 32.3 °F 29.93 in WNW 7.6 mph 29.0 mph 61 % 0.00 in
15:57 45.0 °F 31.9 °F 29.93 in NW 5.1 mph 29.0 mph 60 % 0.00 in
16:02 45.0 °F 31.5 °F 29.93 in NW 5.7 mph 29.0 mph 59 % 0.00 in
16:08 45.0 °F 31.1 °F 29.93 in NNW 6.3 mph 29.0 mph 58 % 0.00 in
16:13 45.0 °F 31.9 °F 29.93 in NW 3.2 mph 29.0 mph 60 % 0.00 in
16:18 44.9 °F 31.0 °F 29.94 in WNW 2.8 mph 29.0 mph 58 % 0.00 in
16:23 44.8 °F 31.3 °F 29.94 in West 5.0 mph 29.0 mph 59 % 0.00 in
16:28 44.7 °F 30.8 °F 29.95 in WNW 4.8 mph 29.0 mph 58 % 0.00 in
16:33 44.6 °F 30.7 °F 29.95 in West 5.2 mph 29.0 mph 58 % 0.00 in
16:38 44.5 °F 31.1 °F 29.95 in North 7.1 mph 29.0 mph 59 % 0.00 in
16:43 44.5 °F 30.6 °F 29.95 in WNW 7.0 mph 29.0 mph 58 % 0.00 in
16:48 44.3 °F 30.9 °F 29.96 in NW 4.4 mph 29.0 mph 59 % 0.00 in
16:53 44.2 °F 30.3 °F 29.96 in NW 7.0 mph 29.0 mph 58 % 0.00 in
16:59 44.0 °F 31.0 °F 29.96 in WNW 7.9 mph 29.0 mph 60 % 0.00 in
17:04 43.9 °F 30.9 °F 29.97 in NW 8.5 mph 29.0 mph 60 % 0.00 in
17:09 43.7 °F 30.7 °F 29.97 in West 8.7 mph 29.0 mph 60 % 0.00 in
17:14 43.6 °F 30.6 °F 29.98 in West 7.2 mph 29.0 mph 60 % 0.00 in
17:19 43.4 °F 31.2 °F 29.98 in NW 7.7 mph 29.0 mph 62 % 0.00 in
17:24 43.4 °F 31.2 °F 29.98 in NNW 4.7 mph 29.0 mph 62 % 0.00 in
17:29 43.3 °F 31.1 °F 29.98 in NNW 4.6 mph 29.0 mph 62 % 0.00 in
17:34 43.2 °F 31.1 °F 29.98 in NW 5.4 mph 29.0 mph 62 % 0.00 in
17:39 43.1 °F 31.0 °F 29.99 in NW 4.0 mph 29.0 mph 62 % 0.00 in
17:44 43.1 °F 31.4 °F 29.99 in WNW 3.0 mph 29.0 mph 63 % 0.00 in
17:49 43.0 °F 30.9 °F 30.00 in NW 6.1 mph 29.0 mph 62 % 0.00 in
17:54 43.0 °F 31.6 °F 30.00 in WNW 5.0 mph 13.0 mph 64 % 0.00 in
17:59 43.0 °F 30.9 °F 30.00 in WNW 8.9 mph 29.0 mph 62 % 0.00 in
18:04 43.0 °F 30.9 °F 30.01 in West 3.9 mph 29.0 mph 62 % 0.00 in
18:10 43.0 °F 30.9 °F 30.01 in NNW 7.1 mph 29.0 mph 62 % 0.00 in
18:15 43.0 °F 30.9 °F 30.01 in NW 4.3 mph 29.0 mph 62 % 0.00 in
18:20 43.0 °F 31.3 °F 30.01 in WNW 6.1 mph 29.0 mph 63 % 0.00 in
18:25 43.0 °F 32.0 °F 30.01 in NW 6.8 mph 29.0 mph 65 % 0.00 in
18:30 43.0 °F 32.4 °F 30.01 in NW 3.7 mph 29.0 mph 66 % 0.00 in
18:35 42.9 °F 32.3 °F 30.01 in NW 6.4 mph 29.0 mph 66 % 0.00 in
18:40 42.9 °F 31.9 °F 30.01 in WNW 7.2 mph 29.0 mph 65 % 0.00 in
18:45 42.8 °F 31.5 °F 30.02 in WNW 5.1 mph 29.0 mph 64 % 0.00 in
18:50 42.6 °F 31.3 °F 30.02 in WNW 6.8 mph 29.0 mph 64 % 0.00 in
18:55 42.4 °F 31.5 °F 30.03 in NW 6.5 mph 29.0 mph 65 % 0.00 in
19:00 42.2 °F 31.3 °F 30.03 in West 5.2 mph 29.0 mph 65 % 0.00 in
19:05 42.0 °F 31.1 °F 30.03 in WNW 4.9 mph 29.0 mph 65 % 0.00 in
19:10 41.9 °F 31.0 °F 30.03 in WNW 5.3 mph 29.0 mph 65 % 0.00 in
19:15 41.8 °F 30.9 °F 30.04 in NW 10.3 mph 29.0 mph 65 % 0.00 in
19:21 41.7 °F 30.8 °F 30.04 in West 8.1 mph 29.0 mph 65 % 0.00 in
19:26 41.5 °F 30.6 °F 30.04 in WNW 6.3 mph 29.0 mph 65 % 0.00 in
19:31 41.5 °F 31.0 °F 30.04 in WNW 6.0 mph 29.0 mph 66 % 0.00 in
19:36 41.4 °F 30.9 °F 30.03 in NW 5.1 mph 29.0 mph 66 % 0.00 in
19:41 41.3 °F 31.2 °F 30.04 in WNW 5.5 mph 29.0 mph 67 % 0.00 in
19:46 41.2 °F 31.1 °F 30.04 in West 6.6 mph 29.0 mph 67 % 0.00 in
19:51 41.0 °F 30.9 °F 30.04 in WNW 9.2 mph 29.0 mph 67 % 0.00 in
19:56 41.0 °F 30.9 °F 30.04 in NW 9.3 mph 29.0 mph 67 % 0.00 in
20:01 40.9 °F 30.8 °F 30.04 in WNW 6.7 mph 29.0 mph 67 % 0.00 in
20:06 40.8 °F 30.7 °F 30.04 in WSW 5.1 mph 29.0 mph 67 % 0.00 in
20:11 40.7 °F 31.0 °F 30.05 in NW 2.8 mph 29.0 mph 68 % 0.00 in
20:16 40.6 °F 30.9 °F 30.05 in WNW 9.2 mph 29.0 mph 68 % 0.00 in
20:21 40.5 °F 30.8 °F 30.05 in WSW 4.2 mph 29.0 mph 68 % 0.00 in
20:26 40.5 °F 31.1 °F 30.05 in WNW 6.7 mph 29.0 mph 69 % 0.00 in
20:32 40.4 °F 31.0 °F 30.05 in West 7.1 mph 29.0 mph 69 % 0.00 in
20:37 40.4 °F 31.0 °F 30.05 in West 6.4 mph 29.0 mph 69 % 0.00 in
20:42 40.3 °F 31.3 °F 30.05 in WNW 5.8 mph 29.0 mph 70 % 0.00 in
20:47 40.3 °F 31.3 °F 30.06 in NW 5.1 mph 29.0 mph 70 % 0.00 in
20:52 40.2 °F 31.2 °F 30.06 in West 4.3 mph 29.0 mph 70 % 0.00 in
20:57 40.2 °F 31.2 °F 30.06 in West 5.5 mph 29.0 mph 70 % 0.00 in
21:02 40.1 °F 31.1 °F 30.06 in West 2.5 mph 29.0 mph 70 % 0.00 in
21:07 40.1 °F 31.1 °F 30.07 in WSW 3.6 mph 29.0 mph 70 % 0.00 in
21:12 40.1 °F 31.1 °F 30.07 in West 6.5 mph 29.0 mph 70 % 0.00 in
21:17 40.0 °F 31.4 °F 30.08 in NW 5.9 mph 29.0 mph 71 % 0.00 in
21:22 40.0 °F 31.4 °F 30.08 in WNW 6.2 mph 29.0 mph 71 % 0.00 in
21:27 40.0 °F 31.4 °F 30.09 in NW 6.9 mph 29.0 mph 71 % 0.00 in
21:32 40.0 °F 31.4 °F 30.09 in West 4.4 mph 29.0 mph 71 % 0.00 in
21:37 40.1 °F 31.4 °F 30.09 in NW 5.8 mph 29.0 mph 71 % 0.00 in
21:42 40.1 °F 31.8 °F 30.09 in WNW 5.7 mph 29.0 mph 72 % 0.00 in
21:47 40.1 °F 31.4 °F 30.10 in NW 4.4 mph 29.0 mph 71 % 0.00 in
21:52 40.1 °F 31.8 °F 30.10 in NW 4.5 mph 29.0 mph 72 % 0.00 in
21:57 40.1 °F 31.8 °F 30.10 in WNW 5.8 mph 29.0 mph 72 % 0.00 in
22:03 40.0 °F 31.7 °F 30.09 in WNW 6.2 mph 29.0 mph 72 % 0.00 in
22:08 40.0 °F 31.7 °F 30.10 in WNW 2.5 mph 29.0 mph 72 % 0.00 in
22:13 39.9 °F 31.6 °F 30.10 in WNW 6.3 mph 29.0 mph 72 % 0.00 in
22:18 39.9 °F 31.6 °F 30.11 in NW 5.8 mph 29.0 mph 72 % 0.00 in
22:23 39.9 °F 31.6 °F 30.11 in WNW 4.7 mph 29.0 mph 72 % 0.00 in
22:28 39.9 °F 31.6 °F 30.11 in NW 5.8 mph 29.0 mph 72 % 0.00 in
22:33 39.9 °F 31.6 °F 30.12 in WNW 8.4 mph 29.0 mph 72 % 0.00 in
22:38 39.9 °F 31.6 °F 30.12 in NW 5.1 mph 29.0 mph 72 % 0.00 in
22:43 39.9 °F 31.6 °F 30.13 in WNW 7.6 mph 29.0 mph 72 % 0.00 in
22:48 39.8 °F 31.8 °F 30.13 in West 5.6 mph 29.0 mph 73 % 0.00 in
22:53 39.8 °F 31.8 °F 30.13 in WNW 5.7 mph 29.0 mph 73 % 0.00 in
22:58 39.8 °F 31.8 °F 30.13 in WNW 2.8 mph 29.0 mph 73 % 0.00 in
23:03 39.8 °F 31.8 °F 30.13 in WNW 5.6 mph 29.0 mph 73 % 0.00 in
23:08 39.8 °F 31.8 °F 30.12 in NW 6.5 mph 29.0 mph 73 % 0.00 in
23:13 39.8 °F 31.8 °F 30.12 in WNW 3.3 mph 29.0 mph 73 % 0.00 in
23:19 39.7 °F 32.1 °F 30.12 in WNW 0.7 mph 29.0 mph 74 % 0.00 in
23:24 39.6 °F 32.0 °F 30.13 in WNW 2.3 mph 29.0 mph 74 % 0.00 in
23:29 39.5 °F 31.9 °F 30.13 in WNW 3.5 mph 29.0 mph 74 % 0.00 in
23:34 39.5 °F 31.9 °F 30.14 in NW 5.3 mph 29.0 mph 74 % 0.00 in
23:39 39.4 °F 31.8 °F 30.14 in WNW 4.6 mph 29.0 mph 74 % 0.00 in
23:44 39.4 °F 31.8 °F 30.14 in WNW 3.5 mph 29.0 mph 74 % 0.00 in
23:49 39.3 °F 31.7 °F 30.15 in NW 5.7 mph 29.0 mph 74 % 0.00 in
23:59 39.3 °F 31.7 °F 30.15 in WNW 4.8 mph 29.0 mph 74 % 0.00 in
Crab Meadow Weather
Compliments of Weather Underground - 3 mb

Script developed by  Jim McMurry - jmcmurry@mwt.net Adapted for the template by  Wim van der Kuil - Leuven-Template.eu

Recycling: Out of every $10 spent buying things, $1 (10%) goes for packaging that is thrown away. Packaging represents about 65% of household trash.